Nearby METAR Reports

 

KMTN - Baltimore/Martin, Maryland, USA
Distance from station: SSE 8mi, 13km
Updated: Thu, 23-Oct-2014 1:30am EDT
Overcast
Overcast
 Wind from WNW
Wind: WNW 16 mph , 26 km/h
Temperature: 54°F , 12°C
Dew Point: 46°F , 8°C
Humidity: 77%
Barometer: 29.87 inHg , 1011.5 hPa
Clouds: Overcast
Visibility: 10 miles , 16 km
Cloud details: Overcast 3100 ft
2014/10/23 05:30 KMTN 230530Z AUTO 29014KT 10SM OVC031 12/08 A2987 RMK AO2 LTG DSNT E
KDMH - Baltimore/Dwntwn, Maryland, USA
Distance from station: SW 12mi, 19km
Updated: Thu, 23-Oct-2014 12:54am EDT

 
Temperature: 54°F , 12°C
Dew Point: 43°F , 6°C
Humidity: 67%
Barometer: 29.88 inHg , 1011.9 hPa
2014/10/23 04:54 KDMH 230454Z AUTO 12/06 A2988 RMK AO1 SLP118 T01220061 401330122
 
KBWI - Balto/Wash Intl, Maryland, USA
Distance from station: SSW 20mi, 33km
Updated: Thu, 23-Oct-2014 12:54am EDT
Overcast
Overcast
 Wind from WNW
Wind: WNW 12 mph , 19 km/h, Gust: 20 mph , 31 km/h
Temperature: 54°F , 12°C
Dew Point: 43°F , 6°C
Humidity: 67%
Barometer: 29.88 inHg , 1011.9 hPa
Clouds: Overcast
Visibility: 10 miles , 16 km
Cloud details: Overcast 3100 ft
2014/10/23 04:54 KBWI 230454Z 30010G17KT 10SM OVC031 12/06 A2988 RMK AO2 SLP118 T01170061 401280111
KDMW - Carroll Cnty, Maryland, USA
Distance from station: WNW 30mi, 48km
Updated: Thu, 23-Oct-2014 1:30am EDT
Overcast
Overcast
 Wind from NW
Wind: NW 12 mph , 19 km/h, Gust: 21 mph , 33 km/h
Temperature: 50°F , 10°C
Wind Chill: 45°F , 7°C
Dew Point: 45°F , 7°C
Humidity: 82%
Barometer: 29.90 inHg , 1012.5 hPa
Clouds: Overcast
Visibility: 10 miles , 16 km
Cloud details: Overcast 2700 ft
2014/10/23 05:30 KDMW 230530Z AUTO 32010G18KT 10SM OVC027 10/07 A2990 RMK AO2 LTG DSNT E
 
KNAK - Annapolis/Naval, Maryland, USA
Distance from station: S 30mi, 48km
Updated: Thu, 23-Oct-2014 12:54am EDT
Overcast
Overcast
 Wind from WNW
Wind: WNW 13 mph , 20 km/h, Gust: 23 mph , 37 km/h
Temperature: 55°F , 13°C
Dew Point: 45°F , 7°C
Humidity: 67%
Barometer: 29.86 inHg , 1011.2 hPa
Clouds: Overcast
Visibility: 10 miles , 16 km
Cloud details: Mostly cloudy 3600 ft
Overcast 6000 ft
2014/10/23 04:54 KNAK 230454Z AUTO 30011G20KT 10SM BKN036 OVC060 13/07 A2986 RMK AO2 SLP115 T01280072 401440128
KW29 - Stevensville, Maryland, USA
Distance from station: SSE 31mi, 50km
Updated: Thu, 23-Oct-2014 1:33am EDT

 Wind from NW
Wind: NW 20 mph , 31 km/h, Gust: 28 mph , 44 km/h
Temperature: 54°F , 12°C
Dew Point: 45°F , 7°C
Humidity: 72%
Barometer: 29.85 inHg , 1010.8 hPa
Visibility: 10 miles , 16 km
2014/10/23 05:33 KW29 230533Z AUTO 31017G24KT 10SM 12/07 A2985 RMK AO1
 
KCGS - College Park, Maryland, USA
Distance from station: SW 38mi, 61km
Updated: Thu, 23-Oct-2014 1:30am EDT
Overcast
Overcast
 Wind from WNW
Wind: WNW 9 mph , 15 km/h, Gust: 17 mph , 28 km/h
Temperature: 54°F , 12°C
Dew Point: 43°F , 6°C
Humidity: 67%
Barometer: 29.90 inHg , 1012.5 hPa
Clouds: Overcast
Visibility: 10 miles , 16 km
Cloud details: Overcast 3400 ft
2014/10/23 05:30 KCGS 230530Z AUTO 30008G15KT 270V330 10SM OVC034 12/06 A2990 RMK AO1
KGAI - Gaithersburg, Maryland, USA
Distance from station: WSW 40mi, 65km
Updated: Thu, 23-Oct-2014 1:35am EDT
Overcast
Overcast
 Wind from WNW
Wind: WNW 15 mph , 24 km/h, Gust: 20 mph , 31 km/h
Temperature: 48°F , 9°C
Wind Chill: 42°F , 6°C
Dew Point: 41°F , 5°C
Humidity: 76%
Barometer: 29.95 inHg , 1014.2 hPa
Clouds: Overcast
Visibility: 10 miles , 16 km
Cloud details: Overcast 3400 ft
2014/10/23 05:35 KGAI 230535Z 29013G17KT 10SM OVC034 09/05 A2995 RMK AO1
 
KTHV - York, Pennsylvania, USA
Distance from station: NNW 40mi, 65km
Updated: Thu, 23-Oct-2014 12:53am EDT
Overcast
Overcast
 Wind from NW
Wind: NW 14 mph , 22 km/h, Gust: 18 mph , 30 km/h
Temperature: 52°F , 11°C
Dew Point: 43°F , 6°C
Humidity: 72%
Barometer: 29.91 inHg , 1012.9 hPa
Clouds: Overcast
Visibility: 10 miles , 16 km
Cloud details: Overcast 2600 ft
2014/10/23 04:53 KTHV 230453Z AUTO 32012G16KT 10SM OVC026 11/06 A2991 RMK AO2 SLP132 T01060061 401280106
KFDK - Frederick, Maryland, USA
Distance from station: W 47mi, 75km
Updated: Thu, 23-Oct-2014 1:30am EDT
Partly cloudy
Partly cloudy
 Wind from NW
Wind: NW 10 mph , 17 km/h, Gust: 18 mph , 30 km/h
Temperature: 55°F , 13°C
Dew Point: 41°F , 5°C
Humidity: 59%
Barometer: 29.96 inHg , 1014.6 hPa
Clouds: Partly cloudy
Visibility: 10 miles , 16 km
Cloud details: Partly cloudy 4200 ft
2014/10/23 05:30 KFDK 230530Z AUTO 32009G16KT 10SM SCT042 13/05 A2996 RMK AO2 LTG DSNT E
 
KESN - Easton/Newnam, Maryland, USA
Distance from station: SSE 48mi, 78km
Updated: Thu, 23-Oct-2014 1:46am EDT
Overcast
Overcast
 Wind from N
Wind: N 16 mph , 26 km/h, Gust: 23 mph , 37 km/h
Temperature: 55°F , 13°C
Dew Point: 48°F , 9°C
Humidity: 77%
Barometer: 29.87 inHg , 1011.5 hPa
Clouds: Overcast
Visibility: 10 miles , 16 km
Cloud details: Overcast 3100 ft
2014/10/23 05:46 KESN 230546Z AUTO 35014G20KT 10SM OVC031 13/09 A2987 RMK AO2 T01300089
KDCA - Washington/Natl, Washington D.c., USA
Distance from station: SW 49mi, 79km
Updated: Thu, 23-Oct-2014 12:52am EDT
Mostly cloudy
Mostly cloudy
 Wind from NW
Wind: NW 17 mph , 28 km/h, Gust: 24 mph , 39 km/h
Temperature: 55°F , 13°C
Dew Point: 41°F , 5°C
Humidity: 59%
Barometer: 29.92 inHg , 1013.2 hPa
Clouds: Mostly cloudy
Visibility: 10 miles , 16 km
Cloud details: Partly cloudy 3500 ft
Mostly cloudy 6500 ft
2014/10/23 04:52 KDCA 230452Z 31015G21KT 10SM SCT035 BKN065 13/05 A2992 RMK AO2 SLP131 T01280050 401440128
 
KLNS - Lancaster, Pennsylvania, USA
Distance from station: N 49mi, 79km
Updated: Thu, 23-Oct-2014 1:14am EDT
Light rain, Overcast
Light rain, Overcast
 Wind from NNW
Wind: NNW 13 mph , 20 km/h
Temperature: 52°F , 11°C
Dew Point: 45°F , 7°C
Humidity: 77%
Barometer: 29.87 inHg , 1011.5 hPa
Summary: Light rain
Clouds: Overcast
Visibility: 10 miles , 16 km
Cloud details: Partly cloudy 2600 ft
Partly cloudy 3200 ft
Overcast 6500 ft
2014/10/23 05:14 KLNS 230514Z AUTO 34011KT 10SM -RA SCT026 SCT032 OVC065 11/07 A2987 RMK AO2 P0000 T01060067
KILG - Wilmington, Delaware, USA
Distance from station: ENE 50mi, 81km
Updated: Thu, 23-Oct-2014 12:51am EDT
Light rain, Overcast
Light rain, Overcast
 Wind from NNW
Wind: NNW 20 mph , 31 km/h
Temperature: 54°F , 12°C
Dew Point: 46°F , 8°C
Humidity: 77%
Barometer: 29.80 inHg , 1009.1 hPa
Summary: Light rain
Clouds: Overcast
Visibility: 10 miles , 16 km
Cloud details: Few Clouds 4000 ft
Mostly cloudy 6500 ft
Overcast 8000 ft
2014/10/23 04:51 KILG 230451Z 33017KT 10SM -RA FEW040 BKN065 OVC080 12/08 A2980 RMK AO2 RAB30 SLP090 P0000 T01170078 401390111